EW8865 Weather Reports


time (UTC)temp
F
wind
direction
speed
knots
gust
knots
rain 1hr
in
rain 24hr
in
rain mn
in
humidity
%
barometer
mb
20260901104504 67 265 7.0 13.0 0.00 0.00 0.00 69 1020.0
20260901104004 67 246 7.0 13.0 0.00 0.00 0.00 69 1019.9
20260901103003 67 236 6.1 11.3 0.00 0.00 0.00 70 1019.9
20260901102504 67 285 5.2 8.7 0.00 0.00 0.00 71 1019.9
20260901102004 66 231 7.0 12.2 0.00 0.00 0.00 72 1020.0
20260901101504 65 253 5.2 8.7 0.00 0.00 0.00 75 1020.0
20260901100008 65 255 4.3 7.0 0.00 0.00 0.00 77 1020.2
20260901095505 65 224 3.5 6.1 0.00 0.00 0.00 76 1020.1
20260901094504 65 198 6.1 10.4 0.00 0.00 0.00 75 1020.1
20260901094003 65 224 4.3 10.4 0.00 0.00 0.00 74 1020.1
20260901093504 66 203 6.1 12.2 0.00 0.00 0.00 73 1020.0
20260901093004 66 204 6.1 10.4 0.00 0.00 0.00 72 1019.9
20260901092504 66 222 5.2 10.4 0.00 0.00 0.00 74 1019.9
20260901092004 66 207 4.3 7.8 0.00 0.00 0.00 75 1020.0
20260901091504 66 186 3.5 8.7 0.00 0.00 0.00 74 1019.9
20260901091003 65 201 5.2 7.0 0.00 0.00 0.00 73 1020.0
20260901090504 65 241 4.3 7.0 0.00 0.00 0.00 74 1020.0
20260901090004 65 196 1.7 4.3 0.00 0.00 0.00 76 1019.9
20260901085503 64 211 0.9 2.6 0.00 0.00 0.00 77 1020.0
20260901085004 64 217 0.9 2.6 0.00 0.00 0.00 78 1020.0
20260901084504 64 218 0.0 2.6 0.00 0.00 0.00 78 1020.0
20260901084003 64 217 0.9 2.6 0.00 0.00 0.00 78 1020.0
20260901083504 64 217 2.6 4.3 0.00 0.00 0.00 77 1020.0
20260901083004 64 232 1.7 2.6 0.00 0.00 0.00 77 1020.1
20260901082503 64 218 1.7 2.6 0.00 0.00 0.00 77 1020.1
20260901082003 64 221 0.0 1.7 0.00 0.00 0.00 77 1020.1
20260901081504 64 214 0.0 0.0 0.00 0.00 0.00 77 1020.0
20260901080004 62 207 0.0 0.0 0.00 0.00 0.00 80 1020.0
20260901075504 61 208 0.0 0.0 0.00 0.00 0.00 82 1020.0
20260901075004 60 210 0.0 0.0 0.00 0.00 0.00 83 1020.0
20260901074504 59 211 0.0 0.0 0.00 0.00 0.00 83 1020.0
20260901074003 59 211 0.0 0.0 0.00 0.00 0.00 85 1020.0
20260901073503 58 212 0.0 0.0 0.00 0.00 0.00 85 1020.0
20260901072003 56 213 0.0 0.0 0.00 0.00 0.00 89 1020.0
20260901071503 55 217 0.0 0.0 0.00 0.00 0.00 90 1020.0
20260901071003 55 218 0.0 0.0 0.00 0.00 0.00 90 1020.0
20260901070004 54 219 0.0 0.0 0.00 0.00 0.00 90 1019.9
20260901065503 54 219 0.0 0.0 0.00 0.00 0.00 89 1019.9
20260901065004 54 219 0.0 0.0 0.00 0.00 0.00 89 1019.9
20260901064504 54 219 0.0 0.0 0.00 0.00 0.00 90 1019.9
20260901064004 54 219 0.0 0.0 0.00 0.00 0.00 90 1019.8
20260901063504 54 219 0.0 0.0 0.00 0.00 0.00 90 1019.8
20260901063003 54 219 0.0 0.0 0.00 0.00 0.00 90 1019.8
20260901062503 54 218 0.0 0.0 0.00 0.00 0.00 90 1019.7
20260901062004 53 219 0.0 0.0 0.00 0.00 0.00 90 1019.7
20260901061503 53 219 0.0 0.0 0.00 0.00 0.00 90 1019.7
20260901061003 53 219 0.0 0.0 0.00 0.01 0.00 90 1019.6
20260901060503 53 219 0.0 0.0 0.00 0.01 0.00 90 1019.6
20260901055504 53 219 0.0 0.0 0.00 0.01 0.00 90 1019.6
20260901054503 53 220 0.0 0.0 0.00 0.01 0.00 90 1019.5
20260901053504 53 220 0.0 0.0 0.00 0.01 0.00 90 1019.3
20260901053003 53 220 0.0 0.0 0.00 0.01 0.00 90 1019.3
20260901052503 53 220 0.0 0.0 0.00 0.01 0.00 90 1019.3
20260901051503 53 220 0.0 0.0 0.00 0.01 0.00 90 1019.4
20260901050503 53 220 0.0 0.0 0.00 0.01 0.00 90 1019.2
20260901050004 53 220 0.0 0.0 0.00 0.01 0.00 90 1019.2
20260901045503 53 220 0.0 0.0 0.00 0.01 0.00 90 1019.2
20260901045004 53 220 0.9 1.7 0.00 0.01 0.00 90 1019.1
20260901044506 53 220 0.0 1.7 0.00 0.01 0.00 90 1019.1
20260901044004 53 220 0.9 1.7 0.00 0.01 0.00 90 1019.1
20260901043504 53 220 1.7 1.7 0.00 0.01 0.00 90 1019.0
20260901043003 53 220 0.9 1.7 0.00 0.01 0.00 90 1019.0
20260901042504 53 220 1.7 2.6 0.00 0.01 0.00 90 1019.0
20260901041504 53 221 0.0 1.7 0.00 0.01 0.00 90 1019.0
20260901040503 53 221 0.9 1.7 0.00 0.01 0.00 90 1018.9
20260901040004 53 221 0.9 2.6 0.00 0.01 0.00 90 1018.9
20260901035503 53 223 1.7 2.6 0.00 0.01 0.00 90 1019.0
20260901034503 53 219 4.3 7.0 0.00 0.01 0.00 91 1019.1
20260901034003 53 246 0.9 2.6 0.00 0.01 0.00 91 1019.0
20260901033504 53 246 0.9 2.6 0.00 0.01 0.00 91 1019.1
20260901033003 53 246 0.9 1.7 0.00 0.01 0.00 91 1019.0
20260901032504 52 246 0.0 1.7 0.00 0.01 0.00 91 1019.0
20260901032003 52 246 1.7 2.6 0.00 0.01 0.00 91 1019.0
20260901031504 52 248 0.0 2.6 0.00 0.01 0.00 90 1019.0
20260901031004 52 249 0.0 0.0 0.00 0.01 0.00 90 1018.9
20260901030503 52 249 0.0 0.0 0.00 0.01 0.00 90 1018.9
20260901030004 52 248 0.0 0.0 0.00 0.01 0.00 91 1018.9
20260901025503 52 248 0.0 0.0 0.00 0.01 0.00 90 1018.9
20260901025003 52 248 0.0 0.0 0.00 0.01 0.00 90 1018.9
20260901024504 52 248 0.0 0.0 0.00 0.01 0.00 90 1018.9
20260901024004 52 248 0.0 0.0 0.00 0.01 0.00 90 1019.0
20260901023503 52 248 0.0 0.0 0.00 0.01 0.00 90 1019.0
20260901023004 52 248 0.0 0.0 0.00 0.01 0.00 89 1019.0
20260901022503 52 248 0.0 0.0 0.00 0.01 0.00 89 1019.1
20260901022003 52 248 0.0 0.0 0.00 0.01 0.00 89 1019.1
20260901021503 52 248 0.0 0.0 0.00 0.01 0.00 90 1019.1
20260901020003 52 248 0.0 0.0 0.00 0.01 0.00 90 1019.2
20260901015503 52 248 0.0 0.0 0.00 0.01 0.00 90 1019.3
20260901015004 52 248 0.0 0.0 0.00 0.01 0.00 90 1019.2
20260901014503 52 249 0.0 0.0 0.00 0.01 0.00 89 1019.2
20260901014004 52 249 0.0 0.0 0.00 0.01 0.00 89 1019.2
20260901013503 52 249 0.0 0.0 0.00 0.01 0.00 88 1019.3
20260901012504 52 249 0.0 0.0 0.00 0.01 0.00 88 1019.3
20260901012004 52 249 0.0 0.0 0.00 0.01 0.00 87 1019.2
20260901011503 52 249 0.0 0.0 0.00 0.01 0.00 87 1019.2
20260901011004 52 249 0.0 0.0 0.00 0.01 0.00 87 1019.2
20260901010504 52 249 0.0 1.7 0.00 0.01 0.00 87 1019.2
20260901010003 52 249 0.0 0.0 0.00 0.01 0.00 87 1019.2
20260901005504 52 249 0.0 2.6 0.00 0.01 0.00 86 1019.1
20260901005004 53 249 0.9 1.7 0.00 0.01 0.00 86 1019.1
20260901004503 53 249 0.9 0.9 0.00 0.01 0.00 85 1019.1
20260901004004 53 249 0.0 1.7 0.00 0.01 0.00 85 1019.2
20260901003504 53 249 1.7 2.6 0.00 0.01 0.00 85 1019.1
20260901002503 54 248 0.9 1.7 0.00 0.01 0.00 86 1019.1
20260901001504 54 248 2.6 2.6 0.00 0.01 0.00 85 1019.0
20260901000004 54 258 0.9 2.6 0.00 0.02 0.00 84 1019.0
20260831235504 55 258 1.7 2.6 0.00 0.02 0.00 83 1019.0
20260831235004 55 262 0.9 1.7 0.00 0.02 0.00 83 1019.0
20260831234503 55 262 0.9 2.6 0.00 0.02 0.00 82 1019.1
20260831234004 55 262 1.7 5.2 0.00 0.03 0.00 82 1019.1
20260831233504 56 253 2.6 4.3 0.00 0.03 0.00 82 1019.1
20260831233003 56 243 2.6 4.3 0.00 0.04 0.00 81 1019.1
20260831232504 56 253 2.6 4.3 0.00 0.07 0.00 81 1019.1
20260831232004 56 264 4.3 6.1 0.00 0.07 0.00 81 1019.1
20260831231503 57 268 3.5 7.0 0.00 0.07 0.00 81 1019.1
20260831231006 57 263 4.3 7.8 0.00 0.08 0.00 80 1019.1
20260831230505 57 269 3.5 7.8 0.00 0.12 0.00 80 1019.0
20260831230004 57 268 4.3 6.1 0.00 0.22 0.00 80 1019.0
20260831225503 57 276 4.3 7.8 0.00 0.24 0.22 80 1019.0
20260831224504 57 289 6.1 7.8 0.00 0.24 0.22 79 1018.9
20260831224003 57 284 4.3 7.0 0.00 0.24 0.22 79 1018.9
20260831223503 57 284 5.2 8.7 0.00 0.24 0.22 79 1018.8
20260831223003 57 277 5.2 7.8 0.00 0.24 0.22 79 1018.9
20260831222504 57 261 5.2 7.8 0.00 0.24 0.22 79 1018.9
20260831222004 58 279 4.3 7.0 0.00 0.24 0.22 79 1018.9
20260831221003 58 255 3.5 6.1 0.00 0.24 0.22 79 1018.9
20260831220503 58 259 2.6 6.1 0.00 0.24 0.22 78 1018.9
20260831215503 57 291 3.5 7.8 0.00 0.24 0.22 79 1018.8
20260831214503 57 278 3.5 6.1 0.00 0.24 0.22 80 1018.7
20260831214003 57 278 5.2 7.8 0.00 0.24 0.22 80 1018.7
20260831213504 57 276 4.3 10.4 0.00 0.24 0.22 80 1018.7
20260831213004 57 283 4.3 7.0 0.00 0.24 0.22 81 1018.7
20260831212504 57 259 3.5 5.2 0.00 0.24 0.22 81 1018.7
20260831212004 57 257 2.6 5.2 0.00 0.24 0.22 80 1018.7
20260831211504 57 259 2.6 7.0 0.00 0.24 0.22 80 1018.7
20260831211003 57 252 3.5 5.2 0.00 0.24 0.22 80 1018.7
20260831210503 57 234 3.5 5.2 0.00 0.25 0.22 80 1018.7
20260831210004 57 234 2.6 6.1 0.00 0.25 0.22 80 1018.7
20260831205003 57 254 3.5 5.2 0.00 0.25 0.22 79 1018.5
20260831204504 57 246 2.6 4.3 0.00 0.25 0.22 79 1018.5
20260831204003 57 232 3.5 5.2 0.00 0.26 0.22 79 1018.5
20260831203504 58 249 2.6 4.3 0.00 0.26 0.22 79 1018.5
20260831203003 58 255 4.3 5.2 0.00 0.26 0.22 79 1018.5
20260831202503 58 244 2.6 4.3 0.00 0.26 0.22 79 1018.5
20260831202004 58 248 3.5 6.1 0.00 0.27 0.22 79 1018.4
20260831201504 58 246 4.3 6.1 0.00 0.28 0.22 79 1018.4
20260831201004 58 246 4.3 6.1 0.00 0.28 0.22 78 1018.3
20260831200503 58 260 4.3 7.0 0.00 0.28 0.22 78 1018.2
20260831195504 59 269 3.5 6.1 0.00 0.28 0.22 77 1018.1
20260831195003 59 258 3.5 6.1 0.00 0.28 0.22 77 1018.1
20260831194503 59 260 2.6 6.1 0.00 0.28 0.22 76 1018.0
20260831194003 60 261 3.5 5.2 0.00 0.28 0.22 76 1017.9
20260831193503 60 261 4.3 6.1 0.00 0.28 0.22 75 1017.9
20260831192504 61 270 4.3 7.0 0.00 0.28 0.22 75 1017.7
20260831191503 61 270 5.2 7.8 0.00 0.28 0.22 74 1017.6
20260831191005 61 284 4.3 8.7 0.00 0.28 0.22 74 1017.5
20260831190003 62 268 6.1 10.4 0.00 0.28 0.22 74 1017.5
20260831185504 62 257 5.2 7.0 0.00 0.28 0.22 74 1017.5
20260831185004 62 247 4.3 7.8 0.00 0.28 0.22 74 1017.4
20260831184503 62 246 4.3 7.8 0.00 0.28 0.22 73 1017.4
20260831184004 62 259 4.3 7.8 0.00 0.28 0.22 73 1017.3
20260831183003 63 260 4.3 8.7 0.00 0.28 0.22 71 1017.2
20260831182504 63 276 2.6 6.1 0.00 0.28 0.22 70 1017.3
20260831182004 63 271 5.2 7.8 0.00 0.28 0.22 70 1017.2
20260831181004 63 290 4.3 7.8 0.00 0.28 0.22 69 1017.1
20260831180504 63 276 4.3 7.0 0.00 0.28 0.22 69 1017.1
20260831175504 63 281 6.1 7.8 0.00 0.30 0.22 68 1016.9
20260831175004 63 265 6.1 7.8 0.00 0.31 0.22 68 1016.9
20260831174503 63 277 5.2 10.4 0.00 0.33 0.22 68 1016.8
20260831174004 63 283 5.2 10.4 0.00 0.35 0.22 68 1016.8
20260831173504 63 292 6.1 11.3 0.00 0.38 0.22 68 1016.8
20260831172504 64 288 6.1 10.4 0.00 0.46 0.22 67 1016.7
20260831172003 64 287 4.3 10.4 0.00 0.46 0.22 68 1016.6
20260831171504 64 280 7.0 11.3 0.00 0.46 0.22 67 1016.5
20260831170503 64 295 5.2 10.4 0.00 0.46 0.22 68 1016.6
20260831170004 64 286 7.8 11.3 0.00 0.46 0.22 67 1016.5
20260831165504 64 284 7.0 11.3 0.00 0.46 0.22 67 1016.5
20260831165004 64 284 7.0 10.4 0.00 0.46 0.22 66 1016.5
20260831164504 65 284 5.2 10.4 0.00 0.46 0.22 66 1016.4
20260831163004 65 274 5.2 10.4 0.00 0.46 0.22 66 1016.2
20260831162504 65 267 5.2 8.7 0.00 0.46 0.22 67 1016.2
20260831162003 65 295 4.3 10.4 0.00 0.46 0.22 67 1016.2
20260831161504 65 287 6.1 10.4 0.00 0.46 0.22 66 1016.2
20260831161004 65 281 6.1 13.0 0.00 0.46 0.22 66 1016.2
20260831160504 65 281 7.0 12.2 0.00 0.46 0.22 65 1016.2
20260831160004 65 287 9.6 15.6 0.00 0.46 0.22 63 1016.1
20260831155503 66 281 10.4 15.6 0.00 0.46 0.22 63 1016.1
20260831155004 66 288 7.0 13.0 0.00 0.46 0.22 65 1016.0
20260831154003 66 292 8.7 13.9 0.00 0.46 0.22 66 1016.0
20260831153504 65 272 7.8 14.8 0.00 0.46 0.22 67 1015.9
20260831153004 66 291 9.6 17.4 0.00 0.46 0.22 67 1015.8
20260831152503 66 277 8.7 13.0 0.00 0.46 0.22 68 1015.8
20260831152003 66 273 9.6 13.9 0.00 0.46 0.22 67 1015.7
20260831151003 66 271 7.8 12.2 0.00 0.46 0.22 67 1015.4
20260831150504 66 282 7.8 13.9 0.00 0.46 0.22 68 1015.4
20260831150004 66 283 7.8 13.0 0.00 0.46 0.22 68 1015.3
20260831145004 65 277 7.8 12.2 0.00 0.46 0.22 68 1015.3
20260831144504 65 284 8.7 13.9 0.00 0.46 0.22 68 1015.2
20260831144004 66 257 9.6 17.4 0.00 0.46 0.22 68 1015.3
20260831143504 66 282 8.7 12.2 0.00 0.46 0.22 68 1015.3
20260831142503 66 263 7.8 13.0 0.00 0.46 0.22 68 1015.2
20260831142004 66 254 7.8 13.0 0.00 0.46 0.22 67 1015.1
20260831141504 66 255 7.8 14.8 0.00 0.46 0.22 67 1015.0
20260831141003 67 257 6.1 12.2 0.00 0.46 0.22 68 1014.9
20260831140503 67 254 8.7 13.0 0.00 0.46 0.22 67 1014.9
20260831140004 67 261 8.7 13.0 0.00 0.46 0.22 66 1014.9
20260831135503 67 274 8.7 13.9 0.00 0.46 0.22 66 1014.8
20260831135004 67 265 8.7 13.0 0.00 0.46 0.22 66 1014.7
20260831134503 67 265 6.1 11.3 0.00 0.46 0.22 68 1014.7
20260831133004 67 291 7.0 11.3 0.00 0.50 0.22 69 1014.5
20260831132004 68 300 5.2 11.3 0.00 0.50 0.22 68 1014.3
20260831131503 68 254 6.1 10.4 0.00 0.50 0.22 71 1014.2
20260831131004 67 299 6.1 10.4 0.00 0.50 0.22 70 1014.2
20260831130503 68 288 7.8 13.9 0.00 0.50 0.22 69 1014.2
20260831130004 68 299 10.4 13.9 0.00 0.50 0.22 68 1014.1
20260831125503 69 290 4.3 13.0 0.00 0.50 0.22 68 1014.0
20260831125004 69 293 6.1 13.0 0.00 0.50 0.22 69 1013.9
20260831124503 68 271 7.8 13.0 0.00 0.50 0.22 70 1013.9
20260831123503 68 289 8.7 13.0 0.00 0.50 0.22 68 1013.9
20260831123003 69 296 7.8 13.9 0.00 0.50 0.22 68 1013.8
20260831122504 69 288 10.4 15.6 0.00 0.50 0.22 68 1013.7
20260831122003 69 275 6.1 17.4 0.00 0.50 0.22 71 1013.6
20260831121503 68 293 10.4 14.8 0.00 0.50 0.22 71 1013.5
20260831121004 68 287 10.4 14.8 0.00 0.50 0.22 72 1013.5
20260831120504 67 296 11.3 17.4 0.00 0.50 0.22 74 1013.5
20260831120004 67 273 9.6 14.8 0.00 0.50 0.22 77 1013.4
20260831115503 66 287 8.7 14.8 0.00 0.50 0.22 80 1013.4
20260831115004 65 287 9.6 14.8 0.00 0.50 0.22 81 1013.4
20260831114503 66 278 10.4 17.4 0.00 0.50 0.22 77 1013.3
20260831114004 68 297 10.4 20.9 0.00 0.50 0.22 72 1013.1
20260831113504 69 295 8.7 13.9 0.00 0.50 0.22 71 1012.9
20260831113003 68 295 7.8 13.0 0.00 0.50 0.22 72 1012.8
20260831112503 68 302 7.8 13.0 0.00 0.50 0.22 70 1012.8
20260831112004 68 275 5.2 12.2 0.00 0.50 0.22 74 1012.7
20260831111503 67 279 7.8 13.9 0.00 0.50 0.22 77 1012.7
20260831111004 66 286 7.8 12.2 0.00 0.50 0.22 75 1012.7
20260831110004 68 287 10.4 17.4 0.00 0.50 0.22 72 1012.6
20260831105503 69 281 8.7 15.6 0.00 0.50 0.22 71 1012.5
20260831105004 69 278 10.4 17.4 0.00 0.50 0.22 71 1012.4